Flag for Switzerland Weather past 2 weeks in Yverdon-les-Bains, Vaud, Switzerland

Now
66 °F

Mild.


Feels Like: 66 °F
Forecast: 39 / 53 °F
Wind: 7 mph from Northeast

Location: Payerne

Current Time: Apr 27, 2015 at 4:00:11 PM

Latest Report: Apr 27, 2015 at 3:00 PM


Visibility: N/A

Pressure: 29.47 "Hg

Humidity: 55%

Dew point: 49 °F

Location of Yverdon-les-BainsLocation

Historic Weather in Yverdon-les-Bains — Graph

°F

Yverdon-les-Bains temperature yesterday

Maximum temperature yesterday: 66 °F (at 6:00 PM)
Minimum temperature yesterday: 49 °F (at 4:00 AM)
Average temperature yesterday: 56 °F

Past Weeks' High & Low Weather Summary

 TemperatureHumidityPressure
High75 °F (Apr 15, 5:00 PM)97% (Apr 18, 3:00 AM)30.50 "Hg (Apr 18, 3:00 AM)
Low33 °F (Apr 19, 7:00 AM)21% (Apr 24, 4:00 PM)29.47 "Hg (Apr 27, 2:00 PM)
Average54 °F65%30.09 "Hg
* Reported Apr 12 3:00 PM — Apr 27 3:00 PM, Yverdon-les-Bains, Weather by CustomWeather, © 2015

Note: Actual official high and low records may vary slightly from our data, if they occured in-between our weather recording intervals... More about our weather records

Advertising

Yverdon-les-Bains weather history for previous 24 hours

 ConditionsComfort  
Time TempWeatherWind HumidityBarometerVisibility
3:00 PM
Mon, Apr 27
66 °FMild.7 mph55%29.47 "HgN/A
2:00 PM67 °FOvercast.8 mph58%29.47 "Hg11 mi
1:00 PM64 °FMild.7 mph63%29.50 "HgN/A
12:00 PM62 °FCool.9 mph70%29.50 "HgN/A
11:00 AM60 °FFog.7 mph76%29.54 "Hg7 mi
10:00 AM57 °FCool.7 mph84%29.56 "HgN/A
9:00 AM54 °FCool.3 mph94%29.59 "HgN/A
8:00 AM53 °FLight rain. Low clouds.1 mph96%29.60 "Hg2 mi
7:00 AM52 °FCool.2 mph97%29.61 "HgN/A
6:00 AM51 °FCool.2 mph96%29.59 "HgN/A
5:00 AM52 °FCool.3 mph96%29.60 "HgN/A
4:00 AM52 °FCool.1 mph97%29.62 "HgN/A
3:00 AM53 °FCool.1 mph97%29.63 "HgN/A
2:00 AM54 °FFog.No wind97%29.66 "Hg5 mi
1:00 AM54 °FCool.1 mph96%29.66 "HgN/A
12:00 AM55 °FCool.2 mph95%29.67 "HgN/A
10:00 PM
Sun, Apr 26
56 °FCool.1 mph92%29.68 "HgN/A
9:00 PM59 °FCool.2 mph76%29.66 "HgN/A
8:00 PM61 °FOvercast.1 mph72%29.65 "Hg14 mi
7:00 PM64 °FMild.6 mph62%29.64 "HgN/A
6:00 PM66 °FMild.6 mph62%29.65 "HgN/A
5:00 PM64 °FMild.3 mph67%29.67 "HgN/A
4:00 PM65 °FMild.3 mph64%29.70 "HgN/A
Weather by CustomWeather, © 2015

See weather overviewHow to use our weather pages